Regional Weather Roundup
Issued by NWS

Home | Current Version | Previous Version | Graphics & Text | Print | Product List | Glossary On
Versions: 1 2 3 4 5 6 7 8 9 10 11 12 13 14 15 16 17 18 19 20 21 22 23 24 25 26 27 28 29 30 31 32 33 34 35 36 37 38 39 40 41 42 43 44 45 46 47 48 49 50
000
ASUS43 KOAX 090810
RWRNE

WEATHER ROUNDUP FOR NEBRASKA
NATIONAL WEATHER SERVICE OMAHA NE
200 AM CST TUE FEB 09 2016

NOTES: SATELLITE DATA IS BEING USED TO AUGMENT CLOUD COVER ABOVE
       12000 FEET.
       "FAIR" INDICATES FEW OR NO CLOUDS BELOW 12,000 FEET WITH NO
       SIGNIFICANT WEATHER AND/OR OBSTRUCTIONS TO VISIBILITY.

  * THESE STATIONS DO NOT REPORT WEATHER SUCH AS RAIN...SNOW OR FOG.

NEZ001>004-019>022-054>056-090900-
NEBRASKA PANHANDLE

CITY           SKY/WX    TMP DP  RH WIND       PRES   REMARKS
SCOTTSBLUFF    MOCLDY    31  25  78 NW12      30.24F WCI  22
ALLIANCE       CLOUDY    35  27  72 NW14      30.19S WCI  26
CHADRON        CLOUDY    34  27  75 NE7       30.23R WCI  28
KIMBALL        CLEAR     35  26  68 W21       30.24S WCI  24
SIDNEY         CLEAR     32  25  75 W17       30.22F WCI  21
$$

NEZ057>060-069>072-079>082-090900-
SOUTHWEST NEBRASKA

CITY           SKY/WX    TMP DP  RH WIND       PRES   REMARKS
NORTH PLATTE   CLOUDY    28  20  71 NW7       30.20S WCI  21
IMPERIAL       CLOUDY    29  23  78 NW7       30.22F WCI  22
LEXINGTON      CLOUDY    29  20  68 NW12      30.17F WCI  20
MCCOOK         PTCLDY    29  20  69 W14       30.22S WCI  18
OGALLALA       CLOUDY    21  18  88 W6        30.22S WCI  14
$$

NEZ005>010-023>029-035>040-094-090900-
NORTH CENTRAL NEBRASKA

CITY           SKY/WX    TMP DP  RH WIND       PRES   REMARKS
VALENTINE      CLOUDY    29  18  63 N12       30.20S WCI  19
AINSWORTH      CLOUDY    30  17  58 N18G25    30.18S WCI  17
BROKEN BOW     CLOUDY    31  16  54 N20       30.15F WCI  19
O`NEILL        PTCLDY    23  15  72 N10       30.17S WCI  12
ORD            MOCLDY    24  17  74 NW13      30.14F WCI  12
THEDFORD       CLOUDY    33  17  51 N15G22    30.19S WCI  23
$$

NEZ041-046>049-061>064-073>077-083>087-090900-
SOUTH CENTRAL NEBRASKA

CITY           SKY/WX    TMP DP  RH WIND       PRES   REMARKS
GRAND ISLAND   CLEAR     20  13  74 W9        30.15F WCI   9
AURORA         CLEAR     22  16  76 NW12      30.13S WCI  11
HASTINGS       CLEAR     21  13  71 NW10      30.15F WCI  10
HEBRON         CLEAR     27  18  69 NW9       30.15S WCI  18
HOLDREGE       CLOUDY    27  17  67 NW8       30.16F WCI  18
YORK           CLEAR     23  18  80 NW9       30.13S WCI  13
$$

NEZ011>018-030>034-042>045-090900-
NORTHEAST NEBRASKA

CITY           SKY/WX    TMP DP  RH WIND       PRES   REMARKS
NORFOLK        CLOUDY    22  12  65 N22G30    30.12S WCI   6
ALBION         CLEAR     24  14  66 N13G22    30.12F WCI  12
BLAIR          CLEAR     22  12  65 NW28G33   30.06S WCI   4
COLUMBUS *     PTCLDY    23   7  50 N20G28    30.12F WCI   8
FREMONT        CLOUDY    22  12  64 N16G25    30.11S WCI   8
TEKAMAH        PTCLDY    21   9  59 N22       30.11F WCI   5
WAYNE          CLOUDY    20  12  72 N23G31    30.13F WCI   3
$$

NEZ050>053-065>068-078-088>093-090900-
SOUTHEAST NEBRASKA

CITY           SKY/WX    TMP DP  RH WIND       PRES   REMARKS
LINCOLN        PTCLDY    26  14  60 N23G31    30.13S WCI  11
OMAHA EPPLEY   CLEAR     22  12  65 N22G30    30.08S WCI   6
BEATRICE       CLEAR     26  21  82 NW8       30.12S WCI  17
FALLS CITY     CLEAR     27  14  58 NW13G23   30.07S WCI  16
NEBRASKA CITY  PTCLDY    24  11  58 N22G30    30.07F WCI   9
PLATTSMOUTH    CLEAR     22  12  64 NW20      30.07S WCI   7
$$

NEZ044-045-051>053-067-090900-
OMAHA AREA

CITY           SKY/WX    TMP DP  RH WIND       PRES   REMARKS
OMAHA EPPLEY   CLEAR     22  12  65 N22G30    30.08S WCI   6
BLAIR          CLEAR     22  12  65 NW28G33   30.06S WCI   4
FREMONT        CLOUDY    22  12  64 N16G25    30.11S WCI   8
MILLARD        CLEAR     24  13  62 NW12G24   30.10S WCI  13
OFFUTT AFB     CLEAR     23  11  60 NW16G25   30.08S WCI   9
PLATTSMOUTH    CLEAR     22  12  64 NW20      30.07S WCI   7
WAHOO          FAIR      23  14  68 N17       30.11S WCI   9
$$



USA.gov is the U.S. government's official web portal to all federal, state and local government web resources and services.